Location: Sevilla
(37.3933°N, 5.9839°W)
Time: 02:52:37
(UTC+02:00)

Vanguard 3 - Pass Details

Date: 04 July 2024
Orbit: 508 x 3230 km, 33.3° (Epoch: 24 July)

Event Time Altitude Azimuth Distance (km) Brightness Sun altitude
Rises 11:14:14 0° 275° (W) 6,660 11.4 46.1°
Reaches altitude 10° 11:19:15 10° 273° (W) 5,303 11.0 47.1°
Maximum altitude 11:33:19 64° 196° (SSW) 1,848 9.7 49.8°
Drops below altitude 10° 11:41:07 10° 117° (ESE) 3,074 10.9 51.4°
Sets 11:43:18 0° 114° (ESE) 3,774 11.2 51.8°
